Location: Moscow
(30.9132°N, 94.8252°W)
Time: 03:10:26
(UTC+00:00)

Cosmos 1782 Rocket - Visible Passes

Search period start: 19 February 2026 00:00
Search period end: 01 March 2026 00:00
Orbit: 601 x 624 km, 82.5° (Epoch: 18 February)

Date Brightness Start Highest point End Pass type
(mag) Time Alt. Az. Time Alt. Az. Time Alt. Az.
19 Feb 6.6 10:10:16 10° ESE 10:12:29 14° E 10:14:42 10° ENE visible
19 Feb 4.1 11:45:47 10° SSW 11:49:48 35° W 11:53:52 10° NNW visible
20 Feb 5.6 10:25:32 18° SE 10:27:33 26° E 10:31:12 10° NE visible
20 Feb 4.9 12:02:48 13° WSW 12:05:11 19° WNW 12:08:20 10° NNW visible
21 Feb 4.5 10:43:16 46° ENE 10:43:16 46° ENE 10:46:58 10° NNE visible
22 Feb 4.7 10:59:54 32° N 10:59:54 32° N 11:02:20 10° N visible
23 Feb 5.4 11:16:06 18° NNW 11:16:06 18° NNW 11:17:23 10° N visible
